Location: Unspecified
(0.0000°N, 0.0000°E)
Time: 21:18:57
(UTC+00:00)

Amateur Radio Satellites - All Passes

Search period start: 01 April 2015 20:48
Search period end: 02 April 2015 20:48
Location: Unspecified, 0.0000°N, 0.0000°E

Satellite Date Start Highest point End Downlink Frequencies (MHz)
Time Altitude Azimuth
JUGNU 01 Apr 20:53:58 20:59:37 44° 200° (SSW) 21:05:13 437.505
COMPASS 1 01 Apr 20:58:39 21:02:44 52° 259° (W) 21:06:46 437.405
AIST 2 01 Apr 20:59:54 21:03:01 20° 247° (WSW) 21:05:59 435.215
DX 1 01 Apr 21:07:48 21:10:34 17° 80° (E) 21:13:32 434.975-435.025
Oscar 11 01 Apr 21:19:40 21:23:59 89° 256° (WSW) 21:28:17 145.826/435.025
DELFI C3 01 Apr 21:22:09 21:26:11 71° 79° (E) 21:30:13 145.870
DOVE 4 01 Apr 21:24:45 21:28:18 21° 258° (WSW) 21:31:32 437.250
FUNcube-1 01 Apr 21:37:27 21:41:36 67° 79° (E) 21:45:42 145.935
ANTELSAT 01 Apr 21:41:45 21:45:45 28° 101° (E) 21:49:51 437.575/2403.000
POPSAT HIP 1 01 Apr 21:44:32 21:45:20 11° 100° (E) 21:46:29 437.405
UWE-3 01 Apr 21:51:04 21:55:12 54° 259° (WSW) 21:59:15 435.000/436.395/437.385
ZACube-1 01 Apr 21:51:40 21:55:52 72° 259° (W) 21:59:58 437.345
NANOSAT C BR1 01 Apr 21:52:14 21:54:28 15° 100° (E) 21:56:57 145.865
POLYITAN 1 01 Apr 21:58:59 22:01:58 19° 101° (E) 22:05:08 437.675
SRMSAT 01 Apr 21:59:16 22:05:06 60° 201° (SSW) 22:10:56 437.500
VELOX 1 01 Apr 22:00:42 22:04:41 32° 79° (E) 22:08:41 145.980
CUBEBUG 2 01 Apr 22:04:01 22:07:40 27° 259° (W) 22:11:09 437.445
AISAT 01 Apr 22:06:43 22:10:56 41° 78° (ENE) 22:15:08 437.250
HUMSAT D 01 Apr 22:14:40 22:18:47 82° 258° (WSW) 22:22:52 437.325/437.525
50 SAT 01 Apr 22:20:28 22:24:21 68° 79° (E) 22:28:13 437.505
UKube-1 01 Apr 22:27:44 22:31:42 34° 258° (WSW) 22:35:36 .
DUCHIFAT 1 01 Apr 22:32:39 22:36:48 58° 101° (E) 22:41:00 145.980
VERMONT LUNAR 01 Apr 22:32:48 22:33:59 12° 140° (SE) 22:35:17 437.305
QB50P1 01 Apr 22:32:52 22:37:04 60° 102° (ESE) 22:41:17 145.935-145.965
UNISAT 6 01 Apr 22:37:03 22:41:36 49° 281° (W) 22:46:10 437.425
DX 1 01 Apr 22:43:25 22:46:42 20° 259° (W) 22:49:49 434.975-435.025
JUGNU 01 Apr 22:44:58 22:49:01 19° 194° (SSW) 22:52:59 437.505
TIGRISAT 01 Apr 22:45:46 22:50:09 39° 281° (W) 22:54:32 435.000
ESTCUBE 1 01 Apr 22:47:49 22:52:21 65° 78° (ENE) 22:56:50 437.505/2401.250
QB50P2 01 Apr 22:48:55 22:53:10 75° 281° (WNW) 22:57:27 145.880/145.840
BUGSAT 1 01 Apr 22:57:08 23:01:11 89° 90° (E) 23:05:19 437.445
TISAT 1 01 Apr 23:01:39 23:02:00 10° 81° (E) 23:02:42 437.305
PCSat 01 Apr 23:07:35 23:10:52 17° 68° (ENE) 23:14:26 145.827
POPSAT HIP 1 01 Apr 23:17:23 23:21:07 29° 281° (W) 23:24:48 437.405
YUBILEINY 01 Apr 23:18:18 23:23:52 20° 84° (E) 23:30:01 435.215
ANTELSAT 01 Apr 23:19:46 23:22:26 14° 280° (W) 23:24:49 437.575/2403.000
SPROUT 01 Apr 23:21:56 23:25:37 28° 80° (E) 23:29:21 437.525
CUBEBUG 1 01 Apr 23:26:21 23:30:32 39° 259° (WSW) 23:34:39 437.445
NANOSAT C BR1 01 Apr 23:26:52 23:30:12 22° 280° (W) 23:33:27 145.865
POLYITAN 1 01 Apr 23:34:54 23:37:46 17° 280° (W) 23:40:28 437.675
VELOX 1 01 Apr 23:39:57 23:41:09 11° 260° (W) 23:41:57 145.980
PHONESAT 2.4 01 Apr 23:41:48 23:44:27 20° 139° (SE) 23:47:09 2401.200-2431.200
SRMSAT 01 Apr 23:49:51 23:54:32 24° 196° (SSW) 23:59:10 437.500
VERMONT LUNAR 02 Apr 00:08:28 00:11:38 37° 317° (NW) 00:14:47 437.305
TISAT 1 02 Apr 00:33:58 00:37:43 30° 259° (W) 00:41:23 437.305
JUGNU 02 Apr 00:38:01 00:38:56 10° 185° (S) 00:39:48 437.505
ITUPSAT 1 02 Apr 00:38:27 00:42:15 24° 79° (E) 00:46:11 437.325
PCSat 02 Apr 00:49:25 00:54:11 31° 250° (WSW) 00:58:52 145.827
SPROUT 02 Apr 01:00:04 01:01:36 11° 260° (W) 01:02:48 437.525
Oscar 19 02 Apr 01:01:37 01:06:46 69° 102° (ESE) 01:11:58 437.125/150
YUBILEINY 02 Apr 01:12:15 01:20:38 50° 266° (W) 01:28:55 435.215
PHONESAT 2.4 02 Apr 01:19:47 01:22:43 23° 318° (NW) 01:25:35 2401.200-2431.200
SWISSCUBE 02 Apr 01:23:38 01:28:26 72° 258° (WSW) 01:33:13 437.505
BEESAT 02 Apr 01:25:57 01:30:45 75° 258° (WSW) 01:35:31 436.000
SRMSAT 02 Apr 01:42:14 01:44:28 12° 188° (S) 01:46:38 437.500
Gurwin Techsat 1B 02 Apr 01:46:28 01:51:25 41° 102° (ESE) 01:56:25 435.225
O/OREOS (USA 219) 02 Apr 01:59:13 02:03:45 66° 285° (WNW) 02:08:17 437.305
KKS-1 02 Apr 02:11:55 02:16:15 52° 79° (ENE) 02:20:34 437.445
ITAMSAT 1 02 Apr 02:15:15 02:20:23 66° 282° (WNW) 02:25:31 435.822/435.867
ITUPSAT 1 02 Apr 02:16:45 02:20:02 18° 259° (W) 02:23:04 437.325
JUGNU 02 Apr 02:28:29 02:29:06 10° 175° (S) 02:29:46 437.505
STARS 02 Apr 02:35:07 02:39:28 62° 78° (ENE) 02:43:47 437.465
SO-50 02 Apr 02:47:47 02:48:30 10° 64° (ENE) 02:49:36 436.795
RS-15 02 Apr 02:59:26 03:07:00 21° 65° (ENE) 03:15:43 29.354- 29.394
HORYU 2 02 Apr 03:02:10 03:06:35 58° 102° (ESE) 03:11:03 437.375
AO-7 02 Apr 03:04:27 03:11:57 40° 105° (ESE) 03:19:38 29.400- 29.500
AIST 1 02 Apr 03:06:09 03:10:25 48° 274° (W) 03:14:39
Gurwin Techsat 1B 02 Apr 03:29:06 03:31:19 12° 280° (W) 03:33:08 435.225
JAS-2 02 Apr 03:43:32 03:50:18 66° 101° (E) 03:56:18 435.910
MOZHAYETS 4 02 Apr 04:13:37 04:18:10 63° 79° (E) 04:22:43
JUGNU 02 Apr 04:15:09 04:19:01 18° 166° (SSE) 04:22:58 437.505
SO-50 02 Apr 04:24:30 04:29:04 41° 248° (WSW) 04:33:30 436.795
AO-7 02 Apr 04:57:45 05:04:37 28° 284° (WNW) 05:11:12 29.400- 29.500
AUBIESAT-1 02 Apr 05:03:33 05:07:09 65° 75° (ENE) 05:11:03 437.475
CUTE-I 02 Apr 05:05:52 05:09:23 19° 101° (E) 05:13:10 437.470
Cubesat XI-IV 02 Apr 05:07:05 05:10:45 20° 101° (ESE) 05:14:40 437.490
RS-15 02 Apr 05:07:43 05:19:40 70° 248° (WSW) 05:31:51 29.354- 29.394
SRMSAT 02 Apr 05:21:43 05:25:00 15° 168° (SSE) 05:28:23 437.500
PRISM 02 Apr 05:24:38 05:26:33 13° 80° (E) 05:28:44 437.425
GONETS M04 02 Apr 05:30:37 05:38:29 38° 85° (E) 05:46:34
M-CUBED/EXP-1 PRIME 02 Apr 05:31:45 05:35:03 34° 256° (WSW) 05:38:34 437.505
JAS-2 02 Apr 05:34:18 05:35:02 10° 284° (WNW) 05:35:03 435.910
ISS 02 Apr 05:38:28 05:41:12 26° 54° (NE) 05:43:59 145.825
CUSAT 1 02 Apr 05:58:36 06:00:58 12° 87° (E) 06:04:15 437.405
JUGNU 02 Apr 06:02:54 06:08:25 43° 160° (SSE) 06:14:00 437.505
CUBESAT XI-V 02 Apr 06:11:20 06:16:05 87° 260° (W) 06:20:48 437.345
BEESAT 3 02 Apr 06:19:16 06:20:54 13° 114° (ESE) 06:22:46 437.485
CUTE-I 02 Apr 06:44:52 06:49:22 28° 281° (WNW) 06:53:45 437.470
Cubesat XI-IV 02 Apr 06:46:20 06:50:45 26° 281° (WNW) 06:55:04 437.490
STRAND 1 02 Apr 06:54:21 06:59:26 59° 258° (WSW) 07:04:29 437.568
PRISM 02 Apr 06:58:31 07:01:55 23° 259° (W) 07:05:14 437.425
DANDE 02 Apr 07:07:46 07:13:50 51° 87° (E) 07:21:32 436.750
SRMSAT 02 Apr 07:09:28 07:14:45 33° 161° (SSE) 07:20:07 437.500
AIST 2 02 Apr 07:20:32 07:23:24 19° 113° (ESE) 07:26:27 435.215
BEESAT 2 02 Apr 07:22:28 07:26:29 89° 274° (W) 07:30:33 435.950
GONETS M04 02 Apr 07:27:56 07:35:14 27° 265° (W) 07:42:08
CUSAT 1 02 Apr 07:36:45 07:43:16 67° 264° (W) 07:51:15 437.405
JUGNU 02 Apr 07:51:38 07:57:30 69° 339° (NNW) 08:03:25 437.505
BEESAT 3 02 Apr 07:55:36 07:58:49 22° 293° (WNW) 08:01:59 437.485
DOVE 4 02 Apr 08:06:28 08:10:49 35° 102° (ESE) 08:15:29 437.250
BRITE-PL 02 Apr 08:09:42 08:14:21 76° 280° (W) 08:19:26 437.365/2234.400
CANX-2 02 Apr 08:10:49 08:15:00 54° 101° (E) 08:19:14 2200.000
HO-68 02 Apr 08:19:15 08:26:23 73° 104° (ESE) 08:33:33 435.675
CUTE 1.7 + AOD 2 02 Apr 08:24:02 08:28:19 76° 101° (E) 08:32:37 437.475
AAUSAT CUBESAT 2 02 Apr 08:33:20 08:37:24 50° 101° (E) 08:41:30 437.432
GOMX 1 02 Apr 08:36:15 08:40:55 58° 280° (W) 08:45:56 467.674
CUBEBUG 2 02 Apr 08:40:23 08:43:39 20° 101° (E) 08:47:09 437.445
SEEDS 02 Apr 08:47:22 08:51:34 60° 281° (WNW) 08:55:46 437.485
DANDE 02 Apr 08:53:09 08:57:34 17° 257° (WSW) 09:01:58 436.750
CINEMA 3 02 Apr 08:53:37 08:58:21 66° 101° (E) 09:03:18 145.822/145.860
SRMSAT 02 Apr 08:58:04 09:04:05 88° 161° (SSE) 09:10:07 437.500
AIST 2 02 Apr 08:59:04 09:01:52 17° 294° (WNW) 09:04:32 435.215
UKube-1 02 Apr 09:02:54 09:04:45 13° 101° (E) 09:06:52 .
COMPASS 1 02 Apr 09:03:48 09:07:50 44° 281° (W) 09:11:52 437.405
DX 1 02 Apr 09:17:03 09:20:25 23° 101° (E) 09:23:56 434.975-435.025
UNISAT 6 02 Apr 09:18:10 09:18:41 10° 80° (E) 09:19:34 437.425
DELFI C3 02 Apr 09:23:15 09:27:18 74° 101° (E) 09:31:21 145.870
TIGRISAT 02 Apr 09:25:08 09:27:03 13° 80° (E) 09:29:14 435.000
Oscar 11 02 Apr 09:28:34 09:32:53 66° 281° (W) 09:37:12 145.826/435.025
JUGNU 02 Apr 09:41:48 09:46:44 27° 343° (NNW) 09:51:38 437.505
DOVE 4 02 Apr 09:46:23 09:48:35 12° 278° (W) 09:50:27 437.250
FUNcube-1 02 Apr 09:46:56 09:51:29 86° 283° (WNW) 09:56:06 145.935
POPSAT HIP 1 02 Apr 09:50:22 09:52:18 13° 80° (E) 09:54:30 437.405
ANTELSAT 02 Apr 09:55:36 09:59:35 40° 79° (E) 10:03:35 437.575/2403.000
NANOSAT C BR1 02 Apr 09:58:24 10:01:11 18° 80° (E) 10:04:08 145.865
ZACube-1 02 Apr 10:01:32 10:05:58 52° 281° (W) 10:10:27 437.345
UWE-3 02 Apr 10:02:13 10:06:33 39° 281° (W) 10:10:55 435.000/436.395/437.385
CUBEBUG 1 02 Apr 10:03:19 10:04:42 12° 100° (E) 10:06:24 437.445
POLYITAN 1 02 Apr 10:05:52 10:09:13 24° 79° (E) 10:12:39 437.675
HO-68 02 Apr 10:12:19 10:14:06 11° 282° (WNW) 10:15:05 435.675
VELOX 1 02 Apr 10:12:35 10:16:48 48° 101° (ESE) 10:21:06 145.980
CUBEBUG 2 02 Apr 10:16:38 10:20:12 21° 280° (W) 10:23:41 437.445
AISAT 02 Apr 10:18:57 10:23:18 63° 102° (ESE) 10:27:42 437.250
50 SAT 02 Apr 10:19:23 10:23:25 67° 101° (E) 10:27:28 437.505
HUMSAT D 02 Apr 10:20:07 10:24:25 68° 281° (W) 10:28:44 437.325/437.525
UKube-1 02 Apr 10:37:11 10:40:47 25° 281° (W) 10:44:18 .
DUCHIFAT 1 02 Apr 10:39:08 10:43:22 73° 79° (E) 10:47:33 145.980
QB50P1 02 Apr 10:39:42 10:43:57 77° 79° (E) 10:48:10 145.935-145.965
SRMSAT 02 Apr 10:47:58 10:53:24 35° 341° (NNW) 10:58:48 437.500
UNISAT 6 02 Apr 10:51:40 10:55:25 29° 259° (W) 10:59:04 437.425
DX 1 02 Apr 10:54:05 10:56:34 14° 280° (W) 10:58:49 434.975-435.025
QB50P2 02 Apr 10:56:04 11:00:16 58° 259° (WSW) 11:04:24 145.880/145.840
TIGRISAT 02 Apr 11:00:17 11:03:44 23° 259° (W) 11:07:01 435.000
BUGSAT 1 02 Apr 11:00:57 11:05:12 79° 258° (WSW) 11:09:22 437.445
ESTCUBE 1 02 Apr 11:02:16 11:06:44 78° 282° (WNW) 11:11:14 437.505/2401.250
TISAT 1 02 Apr 11:06:23 11:08:05 13° 100° (E) 11:10:06 437.305
PHONESAT 2.4 02 Apr 11:22:23 11:24:43 17° 41° (NE) 11:27:10 2401.200-2431.200
POPSAT HIP 1 02 Apr 11:24:38 11:28:05 23° 259° (W) 11:31:23 437.405
SPROUT 02 Apr 11:29:52 11:33:48 37° 101° (E) 11:37:49 437.525
JUGNU 02 Apr 11:33:43 11:36:27 13° 350° (N) 11:39:07 437.505
NANOSAT C BR1 02 Apr 11:34:00 11:36:56 18° 259° (W) 11:39:40 145.865
CUBEBUG 1 02 Apr 11:37:14 11:40:58 28° 281° (W) 11:44:38 437.445
PCSat 02 Apr 11:42:01 11:47:16 53° 110° (ESE) 11:52:32 145.827
POLYITAN 1 02 Apr 11:42:54 11:45:02 13° 260° (W) 11:46:53 437.675
VERMONT LUNAR 02 Apr 11:43:55 11:47:13 53° 223° (SW) 11:50:32 437.305
YUBILEINY 02 Apr 11:49:35 11:57:33 41° 95° (E) 12:05:43 435.215
Oscar 19 02 Apr 12:01:05 12:01:18 10° 80° (E) 12:02:00 437.125/150
SWISSCUBE 02 Apr 12:11:44 12:12:54 11° 100° (E) 12:14:28 437.505
BEESAT 02 Apr 12:14:16 12:15:06 11° 100° (E) 12:16:22 436.000
SRMSAT 02 Apr 12:39:34 12:43:08 16° 348° (NNW) 12:46:37 437.500
TISAT 1 02 Apr 12:40:18 12:43:47 24° 280° (W) 12:47:11 437.305
PHONESAT 2.4 02 Apr 12:59:53 13:02:59 28° 222° (SW) 13:06:05 2401.200-2431.200
ITUPSAT 1 02 Apr 13:00:14 13:04:48 47° 102° (ESE) 13:09:23 437.325
ITAMSAT 1 02 Apr 13:12:27 13:16:10 21° 79° (E) 13:20:05 435.822/435.867
Oscar 19 02 Apr 13:35:43 13:40:37 45° 258° (WSW) 13:45:27 437.125/150
SWISSCUBE 02 Apr 13:46:19 13:50:41 36° 281° (WNW) 13:55:00 437.505
YUBILEINY 02 Apr 13:47:17 13:54:17 25° 275° (W) 14:00:51 435.215
BEESAT 02 Apr 13:48:28 13:52:52 37° 282° (WNW) 13:57:14 436.000
O/OREOS (USA 219) 02 Apr 14:10:37 14:14:46 36° 255° (WSW) 14:18:51 437.305
KKS-1 02 Apr 14:24:28 14:28:56 81° 103° (ESE) 14:33:25 437.445
Gurwin Techsat 1B 02 Apr 14:24:44 14:30:01 68° 257° (WSW) 14:35:18 435.225
RS-15 02 Apr 14:44:39 14:49:25 14° 118° (ESE) 14:55:19 29.354- 29.394
STARS 02 Apr 14:46:21 14:50:47 89° 264° (W) 14:55:15 437.465
ITAMSAT 1 02 Apr 14:51:17 14:55:34 25° 258° (WSW) 14:59:41 435.822/435.867
SO-50 02 Apr 14:58:34 15:01:23 17° 114° (ESE) 15:04:25 436.795
AIST 1 02 Apr 15:13:27 15:17:17 32° 265° (W) 15:21:03
JUGNU 02 Apr 15:13:46 15:16:43 14° 10° (N) 15:19:45 437.505
HORYU 2 02 Apr 15:15:10 15:19:36 89° 79° (ENE) 15:24:01 437.375
JAS-2 02 Apr 15:15:11 15:20:42 34° 76° (ENE) 15:26:57 435.910
AO-7 02 Apr 15:30:18 15:38:31 64° 75° (ENE) 15:46:43 29.400- 29.500
SRMSAT 02 Apr 16:21:37 16:23:40 12° 8° (N) 16:25:48 437.500
MOZHAYETS 4 02 Apr 16:30:33 16:35:08 75° 281° (WNW) 16:39:43
SO-50 02 Apr 16:38:21 16:41:47 21° 294° (WNW) 16:45:08 436.795
RS-15 02 Apr 16:51:08 17:02:17 79° 292° (WNW) 17:13:08 29.354- 29.394
JAS-2 02 Apr 17:00:58 17:05:46 22° 261° (W) 17:10:39 435.910
JUGNU 02 Apr 17:01:18 17:06:24 29° 18° (NNE) 17:11:31 437.505
AUBIESAT-1 02 Apr 17:05:39 17:10:08 73° 105° (ESE) 17:14:16 437.475
ISS 02 Apr 17:12:22 17:14:29 17° 127° (SE) 17:16:43 145.825
AO-7 02 Apr 17:26:20 17:31:14 16° 256° (WSW) 17:35:26 29.400- 29.500
PRISM 02 Apr 17:28:21 17:30:32 15° 100° (E) 17:32:56 437.425
M-CUBED/EXP-1 PRIME 02 Apr 17:34:14 17:38:26 36° 286° (WNW) 17:42:20 437.505
CUTE-I 02 Apr 17:43:46 17:49:01 56° 78° (ENE) 17:54:17 437.470
Cubesat XI-IV 02 Apr 17:45:16 17:50:33 60° 78° (ENE) 17:55:51 437.490
STRAND 1 02 Apr 17:49:23 17:53:01 21° 101° (E) 17:56:52 437.568
GONETS M04 02 Apr 18:03:34 18:12:13 74° 94° (E) 18:20:53
SRMSAT 02 Apr 18:09:06 18:13:39 23° 16° (NNE) 18:18:15 437.500
BEESAT 3 02 Apr 18:14:00 18:15:59 14° 66° (ENE) 18:18:11 437.485
CUBESAT XI-V 02 Apr 18:30:11 18:34:36 47° 281° (W) 18:39:01 437.345
CUSAT 1 02 Apr 18:45:05 18:47:58 20° 102° (ESE) 18:50:29 437.405
ISS 02 Apr 18:48:51 18:50:47 14° 307° (NW) 18:52:35 145.825
JUGNU 02 Apr 18:49:38 18:55:36 76° 20° (NNE) 19:01:34 437.505
BRITE-PL 02 Apr 19:01:42 19:03:51 13° 83° (E) 19:06:18 437.365/2234.400
PRISM 02 Apr 19:02:49 19:05:55 20° 281° (W) 19:08:51 437.425
BEESAT 2 02 Apr 19:18:16 19:22:17 77° 248° (WSW) 19:26:15 435.950
AIST 2 02 Apr 19:19:18 19:22:32 23° 67° (ENE) 19:25:50 435.215
GOMX 1 02 Apr 19:25:11 19:27:41 15° 82° (E) 19:30:23 467.674
STRAND 1 02 Apr 19:28:04 19:32:06 23° 281° (W) 19:36:00 437.568
BEESAT 3 02 Apr 19:50:54 19:53:55 20° 247° (WSW) 19:56:47 437.485
SRMSAT 02 Apr 19:57:18 20:03:07 56° 21° (NNE) 20:08:56 437.500
DANDE 02 Apr 20:01:37 20:05:27 29° 271° (W) 20:08:25 436.750
GONETS M04 02 Apr 20:06:11 20:09:11 11° 277° (W) 20:11:08
HO-68 02 Apr 20:10:57 20:17:58 61° 77° (ENE) 20:25:01 435.675
CANX-2 02 Apr 20:17:46 20:21:57 70° 80° (E) 20:26:10 2200.000
DOVE 4 02 Apr 20:28:07 20:32:44 67° 79° (E) 20:37:03 437.250
CUTE 1.7 + AOD 2 02 Apr 20:30:58 20:35:11 84° 259° (W) 20:39:24 437.475
BRITE-PL 02 Apr 20:37:46 20:42:24 33° 258° (WSW) 20:46:38 437.365/2234.400
AAUSAT CUBESAT 2 02 Apr 20:37:58 20:42:04 60° 79° (ENE) 20:46:09 437.432
UWE-3 02 Apr 20:40:31 20:41:58 12° 81° (E) 20:43:43 435.000/436.395/437.385
